Starlink 3716

operational
NORAD ID: 52092 Int'l Des: 2022-029 Owner: SPXS Country: US Constellation: starlink
LEOCIRCULAR

关于 Starlink 3716

正在加载描述...

实时位置

正在加载3D地球...

即将过境

高度历史

Altitude vs Time

uPlot chart will show altitude changes over time

两行轨道根数

1 52092U 22029E 25352.47400026 -.00000416 00000-0 -80810-5 0 9998
2 52092 53.2174 93.7146 0001213 89.0637 271.0494 15.08836093208394
Epoch: Dec 18, 2025 • Age: 10 hours

当前状态

高度 545.0 km
速度 7.60 km/s
星下点 50.92°N, 157.18°E
发射日期 Mar 19, 2022
运行时间 3.7 years
类型 internet

技术详情

分类 Payload
质量 297.00 kg
干质量 275.00 kg
总质量 297.00 kg
长度 0.20 m
直径 2.80 m
跨度 9.00 m
形状 Box + pan
制造商 SPXS
平台类型 Starlink
阶段状态 In Orbit
所有者/国家 SPXS/US

大型星座

Loading constellations...